Dublin, VA

1:20 PM EST on December 07, 2019 (GMT -0500)
New River Valley

Weather History for KPSK - October, 2019

Change the Weather History Date:

Thursday, October 10, 2019

  Actual Average (KBCB) Record (KBCB)
Temperature  
Mean Temperature 64 °F -  
Max Temperature 74 °F 67 °F 83 °F (2017)
Min Temperature 52 °F 40 °F 20 °F (1978)
Degree Days  
Heating Degree Days 2    
Growing Degree Days 14 (Base 50)    
Moisture  
Dew Point 54 °F    
Average Humidity 79    
Maximum Humidity 99    
Minimum Humidity 47    
Precipitation  
Precipitation 0.00 in - - ()
Sea Level Pressure  
Sea Level Pressure 30.24 in    
Wind  
Wind Speed 1 mph (ENE)    
Max Wind Speed 9 mph    
Max Gust Speed -    
Visibility 9 miles    
Events      
Averages and records for this station are not official NWS values.
T = Trace of Precipitation, MM = Missing Value Source: NWS Daily Summary

Daily Weather History Graph

Daily Weather History Graph

Search for Another Location

Airport or City:

Astronomy

Oct. 10, 2019 Rise Set
Actual Time 7:25 AM EDT 6:53 PM EDT
Civil Twilight 6:59 AM EDT 7:19 PM EDT
Nautical Twilight 6:29 AM EDT 7:49 PM EDT
Astronomical Twilight 5:59 AM EDT 8:19 PM EDT
Moon 5:48 PM EDT (10/10) 4:14 AM EDT (10/10)
Length of Visible Light 12h 19m
Length of Day
11h 27m
Waxing Gibbous, 91% of the Moon is Illuminated
Oct 10
Waxing Gibbous
Oct 13
Full
Oct 21
Last Quarter
Oct 27
New
Nov 4
First Quarter

Hourly Weather History & Observations

Time (EDT) Temp. Dew Point Humidity Pressure Visibility Wind Dir Wind Speed Gust Speed Precip Events Conditions
12:15 AM 58.6 °F 55.4 °F 89% 30.26 in 10.0 mi Calm Calm - N/A   Overcast
12:35 AM 58.3 °F 55.4 °F 90% 30.26 in 10.0 mi Calm Calm - N/A   Overcast
12:55 AM 58.1 °F 55.9 °F 93% 30.26 in 10.0 mi Calm Calm - N/A   Overcast
1:15 AM 57.6 °F 55.0 °F 91% 30.26 in 10.0 mi Calm Calm - N/A   Overcast
1:55 AM 55.8 °F 54.7 °F 96% 30.26 in 10.0 mi Calm Calm - N/A   Mostly Cloudy
2:15 AM 55.9 °F 54.9 °F 96% 30.27 in 10.0 mi Calm Calm - N/A   Overcast
2:35 AM 55.4 °F 55.0 °F 99% 30.27 in 10.0 mi Calm Calm - N/A   Overcast
2:55 AM 55.9 °F 55.2 °F 97% 30.27 in 10.0 mi NE 3.5 mph - N/A   Overcast
3:15 AM 55.4 °F 54.7 °F 97% 30.26 in 10.0 mi Calm Calm - N/A   Overcast
3:35 AM 55.6 °F 54.5 °F 96% 30.26 in 10.0 mi Calm Calm - N/A   Overcast
3:55 AM 56.1 °F 55.0 °F 96% 30.26 in 10.0 mi East 3.5 mph - N/A   Overcast
4:15 AM 56.8 °F 54.7 °F 92% 30.26 in 10.0 mi East 5.8 mph - N/A   Overcast
4:35 AM 56.7 °F 54.7 °F 93% 30.26 in 10.0 mi East 4.6 mph - N/A   Overcast
4:55 AM 57.0 °F 54.7 °F 92% 30.26 in 10.0 mi ESE 3.5 mph - N/A   Overcast
5:15 AM 57.2 °F 54.5 °F 91% 30.26 in 10.0 mi ESE 3.5 mph - N/A   Overcast
5:35 AM 57.2 °F 54.5 °F 91% 30.26 in 10.0 mi ESE 3.5 mph - N/A   Overcast
5:55 AM 57.2 °F 54.3 °F 90% 30.26 in 10.0 mi Calm Calm - N/A   Overcast
6:15 AM 56.7 °F 54.1 °F 91% 30.26 in 10.0 mi Calm Calm - N/A   Overcast
6:35 AM 56.5 °F 54.9 °F 94% 30.27 in 10.0 mi Calm Calm - N/A   Overcast
6:55 AM 56.3 °F 55.0 °F 96% 30.27 in 10.0 mi Calm Calm - N/A   Overcast
7:15 AM 56.5 °F 54.7 °F 94% 30.27 in 10.0 mi Calm Calm - N/A   Overcast
7:35 AM 56.3 °F 54.9 °F 95% 30.27 in 10.0 mi Calm Calm - N/A   Overcast
7:55 AM 56.5 °F 55.0 °F 95% 30.27 in 10.0 mi ENE 3.5 mph - N/A   Overcast
8:15 AM 56.7 °F 55.2 °F 95% 30.28 in 10.0 mi Calm Calm - N/A   Overcast
8:35 AM 56.8 °F 55.0 °F 94% 30.28 in 10.0 mi Calm Calm - N/A   Overcast
8:55 AM 57.2 °F 54.9 °F 92% 30.29 in 10.0 mi Calm Calm - N/A   Overcast
9:15 AM 57.4 °F 55.0 °F 92% 30.29 in 10.0 mi Calm Calm - N/A   Overcast
9:35 AM 58.3 °F 55.4 °F 90% 30.29 in 10.0 mi Calm Calm - N/A   Overcast
9:55 AM 59.0 °F 55.4 °F 88% 30.29 in 10.0 mi Calm Calm - N/A   Overcast
10:15 AM 59.0 °F 54.5 °F 85% 30.29 in 10.0 mi Calm Calm - N/A   Overcast
10:35 AM 60.1 °F 55.2 °F 84% 30.29 in 10.0 mi Calm Calm - N/A   Overcast
10:55 AM 60.3 °F 55.0 °F 83% 30.28 in 10.0 mi Calm Calm - N/A   Overcast
11:15 AM 60.6 °F 55.2 °F 82% 30.28 in 10.0 mi Calm Calm - N/A   Overcast
11:35 AM 61.5 °F 55.2 °F 80% 30.27 in 10.0 mi Calm Calm - N/A   Mostly Cloudy
11:55 AM 64.2 °F 55.4 °F 73% 30.27 in 10.0 mi NW 3.5 mph - N/A   Scattered Clouds
12:15 PM 65.3 °F 55.6 °F 71% 30.27 in 10.0 mi Calm Calm - N/A   Clear
12:35 PM 67.1 °F 56.1 °F 68% 30.27 in 10.0 mi North 4.6 mph - N/A   Clear
12:55 PM 67.5 °F 55.9 °F 66% 30.26 in 10.0 mi NNW 3.5 mph - N/A   Clear
1:15 PM 68.4 °F 55.4 °F 63% 30.26 in 10.0 mi NNE 3.5 mph - N/A   Clear
1:35 PM 70.0 °F 55.4 °F 60% 30.25 in 10.0 mi North 3.5 mph - N/A   Clear
1:55 PM 70.9 °F 55.0 °F 57% 30.24 in 10.0 mi NE 3.5 mph - N/A   Clear
2:15 PM 71.8 °F 54.3 °F 54% 30.23 in 10.0 mi Calm Calm - N/A   Clear
2:35 PM 72.7 °F 53.4 °F 51% 30.21 in 10.0 mi Calm Calm - N/A   Clear
2:55 PM 73.2 °F 53.1 °F 49% 30.21 in 5.0 mi NE 5.8 mph - N/A   Haze
3:15 PM 73.9 °F 53.8 °F 49% 30.20 in 1.8 mi NE 4.6 mph - N/A   Haze
3:35 PM 73.2 °F 53.4 °F 50% 30.19 in 1.5 mi East 5.8 mph - N/A   Haze
3:55 PM 74.1 °F 52.9 °F 47% 30.20 in 10.0 mi Calm Calm - N/A   Scattered Clouds
4:15 PM 74.7 °F 54.3 °F 49% 30.19 in 10.0 mi NNE 8.1 mph - N/A   Mostly Cloudy
4:35 PM 73.2 °F 53.2 °F 49% 30.19 in 10.0 mi East 3.5 mph - N/A   Mostly Cloudy
4:55 PM 72.0 °F 53.4 °F 52% 30.19 in 10.0 mi ESE 6.9 mph - N/A   Scattered Clouds
5:35 PM 72.7 °F 54.1 °F 52% 30.20 in 2.5 mi East 8.1 mph - N/A   Haze
5:55 PM 71.2 °F 54.1 °F 55% 30.20 in 3.0 mi East 9.2 mph - N/A   Haze
6:15 PM 69.3 °F 54.1 °F 59% 30.20 in 2.5 mi East 5.8 mph - N/A   Haze
6:35 PM 68.0 °F 54.5 °F 62% 30.20 in 3.0 mi East 5.8 mph - N/A   Haze
6:55 PM 66.4 °F 54.5 °F 66% 30.19 in 3.0 mi East 5.8 mph - N/A   Haze
7:15 PM 65.1 °F 53.8 °F 67% 30.20 in 4.0 mi East 4.6 mph - N/A   Haze
7:35 PM 64.4 °F 52.7 °F 66% 30.20 in 4.0 mi East 4.6 mph - N/A   Haze
7:55 PM 62.8 °F 52.7 °F 70% 30.21 in 10.0 mi Calm Calm - N/A   Clear
8:15 PM 62.4 °F 52.0 °F 69% 30.20 in 10.0 mi Calm Calm - N/A   Clear
8:35 PM 61.9 °F 51.1 °F 68% 30.20 in 10.0 mi Calm Calm - N/A   Clear
8:55 PM 58.8 °F 52.5 °F 80% 30.21 in 10.0 mi Calm Calm - N/A   Clear
9:15 PM 57.2 °F 51.8 °F 82% 30.22 in 10.0 mi Calm Calm - N/A   Clear
9:35 PM 56.5 °F 52.7 °F 87% 30.23 in 10.0 mi Calm Calm - N/A   Clear
9:55 PM 56.1 °F 52.2 °F 87% 30.23 in 10.0 mi Calm Calm - N/A   Clear
10:15 PM 56.7 °F 52.5 °F 86% 30.23 in 10.0 mi Calm Calm - N/A   Clear
10:35 PM 55.2 °F 52.2 °F 89% 30.24 in 10.0 mi WNW 3.5 mph - N/A   Clear
10:55 PM 54.0 °F 52.0 °F 93% 30.24 in 10.0 mi Calm Calm - N/A   Clear
11:15 PM 54.1 °F 52.0 °F 92% 30.24 in 10.0 mi Calm Calm - N/A   Clear
11:35 PM 53.8 °F 51.8 °F 93% 30.24 in 10.0 mi Calm Calm - N/A   Clear
11:55 PM 52.9 °F 51.8 °F 96% 30.24 in 10.0 mi Calm Calm - N/A   Clear